When you browse on this site, cookies collect data to enhance your experience and personalize the content and advertising you see.
Visit our Privacy Policy to learn more. By continuing to use the site, you agree to this use of cookies and data.
  • In Österreich
  • Länderverzeichnis
  • Für 7 Tage
  • Wassertemperatur
  • Wetterkarte
  • News
  • Widgets
  • user-avatar
    Anmelden

    Stündliche Wetter Senitsa

    Heute, 18 Oktober, Freitag

    Zeit Temperatur Niederschläge Wind Luftdruck Luftfeuchtigkeit
    00:00 +10°C° 0 mm 1 m/S 678 mmHg 89%
    01:00 +10°C° 0 mm 1 m/S 678 mmHg 90%
    02:00 +10°C° 0 mm 1 m/S 678 mmHg 90%
    03:00 +10°C° 0 mm 1 m/S 678 mmHg 91%
    04:00 +10°C° 0 mm 1 m/S 678 mmHg 91%
    05:00 +10°C° 0 mm 1 m/S 678 mmHg 90%
    06:00 +10°C° 0 mm 1 m/S 678 mmHg 89%
    07:00 +10°C° 0 mm 1 m/S 678 mmHg 88%
    08:00 +12°C° 0 mm 1 m/S 679 mmHg 79%
    09:00 +15°C° 0 mm 1 m/S 679 mmHg 70%
    10:00 +18°C° 0 mm 1 m/S 680 mmHg 61%
    11:00 +19°C° 0 mm 1 m/S 680 mmHg 57%
    12:00 +18°C° 0 mm 2 m/S 680 mmHg 53%
    13:00 +19°C° 0 mm 2 m/S 680 mmHg 48%
    14:00 +18°C° 0 mm 2 m/S 679 mmHg 53%
    15:00 +18°C° 0 mm 1 m/S 679 mmHg 58%
    16:00 +18°C° 0 mm 1 m/S 679 mmHg 63%
    17:00 +15°C° 0 mm 1 m/S 678 mmHg 69%
    18:00 +13°C° 0 mm 1 m/S 678 mmHg 74%
    19:00 +11°C° 0 mm 1 m/S 678 mmHg 80%
    20:00 +11°C° 0 mm 1 m/S 678 mmHg 82%
    21:00 +10°C° 0 mm 1 m/S 678 mmHg 84%
    22:00 +10°C° 0 mm 1 m/S 678 mmHg 85%
    23:00 +10°C° 0 mm 1 m/S 678 mmHg 86%

    Morgen, 19 Oktober, Samstag

    Zeit Temperatur Niederschläge Wind Luftdruck Luftfeuchtigkeit
    00:00 +10°C° 0 mm 1 m/S 678 mmHg 86%
    01:00 +9°C° 0 mm 1 m/S 678 mmHg 87%
    02:00 +9°C° 0 mm 1 m/S 678 mmHg 86%
    03:00 +9°C° 0 mm 1 m/S 678 mmHg 86%
    04:00 +9°C° 0 mm 1 m/S 677 mmHg 85%
    05:00 +9°C° 0 mm 1 m/S 677 mmHg 82%
    06:00 +9°C° 0 mm 1 m/S 678 mmHg 80%
    07:00 +9°C° 0 mm 1 m/S 678 mmHg 77%
    08:00 +12°C° 0 mm 1 m/S 678 mmHg 67%
    09:00 +15°C° 0 mm 1 m/S 679 mmHg 57%
    10:00 +17°C° 0 mm 2 m/S 679 mmHg 47%
    11:00 +18°C° 0 mm 2 m/S 679 mmHg 46%
    12:00 +18°C° 0 mm 2 m/S 680 mmHg 46%
    13:00 +19°C° 0 mm 2 m/S 680 mmHg 45%
    14:00 +18°C° 0 mm 2 m/S 679 mmHg 51%
    15:00 +17°C° 0 mm 2 m/S 679 mmHg 57%
    16:00 +16°C° 0 mm 1 m/S 678 mmHg 64%
    17:00 +15°C° 0 mm 1 m/S 678 mmHg 70%
    18:00 +13°C° 0 mm 2 m/S 678 mmHg 76%
    19:00 +10°C° 0 mm 2 m/S 678 mmHg 82%
    20:00 +10°C° 0 mm 2 m/S 678 mmHg 84%
    21:00 +9°C° 0 mm 2 m/S 678 mmHg 85%
    22:00 +9°C° 0 mm 2 m/S 678 mmHg 87%
    23:00 +9°C° 0 mm 2 m/S 678 mmHg 87%

    übermorgen, 20 Oktober, Sonntag

    Zeit Temperatur Niederschläge Wind Luftdruck Luftfeuchtigkeit
    00:00 +9°C° 0 mm 2 m/S 678 mmHg 87%
    01:00 +9°C° 0 mm 2 m/S 678 mmHg 87%
    02:00 +9°C° 0 mm 2 m/S 678 mmHg 87%
    03:00 +8°C° 0 mm 2 m/S 678 mmHg 86%
    04:00 +8°C° 0 mm 2 m/S 678 mmHg 86%
    05:00 +9°C° 0 mm 2 m/S 678 mmHg 85%
    06:00 +9°C° 0 mm 2 m/S 678 mmHg 84%
    07:00 +9°C° 0 mm 2 m/S 679 mmHg 82%
    08:00 +13°C° 0 mm 2 m/S 679 mmHg 73%
    09:00 +15°C° 0 mm 2 m/S 680 mmHg 64%
    10:00 +18°C° 0 mm 2 m/S 681 mmHg 54%
    11:00 +19°C° 0 mm 2 m/S 681 mmHg 51%
    12:00 +20°C° 0 mm 2 m/S 681 mmHg 47%
    13:00 +20°C° 0 mm 2 m/S 681 mmHg 44%
    14:00 +19°C° 0 mm 2 m/S 681 mmHg 50%
    15:00 +19°C° 0 mm 1 m/S 680 mmHg 55%
    16:00 +18°C° 0 mm 1 m/S 680 mmHg 61%
    17:00 +15°C° 0 mm 1 m/S 680 mmHg 67%
    18:00 +14°C° 0 mm 2 m/S 680 mmHg 73%
    19:00 +12°C° 0 mm 2 m/S 679 mmHg 78%
    20:00 +10°C° 0 mm 2 m/S 680 mmHg 77%
    21:00 +10°C° 0 mm 2 m/S 680 mmHg 76%
    22:00 +10°C° 0 mm 2 m/S 680 mmHg 75%
    23:00 +10°C° 0 mm 2 m/S 680 mmHg 71%

    21 Oktober, Montag

    Zeit Temperatur Niederschläge Wind Luftdruck Luftfeuchtigkeit
    00:00 +10°C° 0 mm 2 m/S 680 mmHg 68%
    01:00 +10°C° 0 mm 2 m/S 680 mmHg 64%
    02:00 +10°C° 0 mm 2 m/S 680 mmHg 62%
    03:00 +10°C° 0 mm 2 m/S 680 mmHg 60%
    04:00 +11°C° 0 mm 1 m/S 680 mmHg 58%
    05:00 +11°C° 0 mm 1 m/S 680 mmHg 57%
    06:00 +11°C° 0 mm 1 m/S 680 mmHg 57%
    07:00 +12°C° 0 mm 1 m/S 680 mmHg 57%
    08:00 +15°C° 0 mm 1 m/S 681 mmHg 52%
    09:00 +19°C° 0 mm 1 m/S 682 mmHg 47%
    10:00 +22°C° 0 mm 1 m/S 683 mmHg 42%
    11:00 +21°C° 0 mm 0 m/S 683 mmHg 41%
    12:00 +22°C° 0 mm 0 m/S 683 mmHg 40%
    13:00 +23°C° 0 mm 0 m/S 683 mmHg 39%
    14:00 +21°C° 0 mm 0 m/S 683 mmHg 45%
    15:00 +20°C° 0 mm 0 m/S 682 mmHg 51%
    16:00 +19°C° 0 mm 0 m/S 682 mmHg 57%
    17:00 +17°C° 0 mm 0 m/S 682 mmHg 60%
    18:00 +15°C° 0 mm 0 m/S 681 mmHg 62%
    19:00 +14°C° 0 mm 0 m/S 681 mmHg 65%
    20:00 +13°C° 0 mm 0 m/S 681 mmHg 66%
    21:00 +13°C° 0 mm 0 m/S 681 mmHg 66%
    22:00 +13°C° 0 mm 0 m/S 681 mmHg 66%
    23:00 +12°C° 0 mm 0 m/S 681 mmHg 67%

    22 Oktober, Dienstag

    Zeit Temperatur Niederschläge Wind Luftdruck Luftfeuchtigkeit
    00:00 +12°C° 0 mm 0 m/S 681 mmHg 67%
    01:00 +12°C° 0 mm 0 m/S 681 mmHg 68%
    02:00 +11°C° 0 mm 0 m/S 681 mmHg 69%
    03:00 +11°C° 0 mm 0 m/S 681 mmHg 69%
    04:00 +11°C° 0 mm 0 m/S 681 mmHg 70%
    05:00 +11°C° 0 mm 0 m/S 681 mmHg 70%
    06:00 +11°C° 0 mm 0 m/S 682 mmHg 71%
    07:00 +11°C° 0 mm 0 m/S 682 mmHg 71%
    08:00 +15°C° 0 mm 1 m/S 682 mmHg 64%
    09:00 +18°C° 0 mm 1 m/S 683 mmHg 57%
    10:00 +20°C° 0 mm 1 m/S 684 mmHg 50%
    11:00 +21°C° 0 mm 1 m/S 684 mmHg 48%
    12:00 +22°C° 0 mm 1 m/S 684 mmHg 45%
    13:00 +23°C° 0 mm 1 m/S 684 mmHg 43%
    14:00 +21°C° 0 mm 1 m/S 683 mmHg 50%
    15:00 +20°C° 0 mm 1 m/S 683 mmHg 57%
    16:00 +19°C° 0 mm 1 m/S 682 mmHg 64%
    17:00 +16°C° 0 mm 1 m/S 682 mmHg 70%
    18:00 +14°C° 0 mm 1 m/S 682 mmHg 77%
    19:00 +12°C° 0 mm 0 m/S 681 mmHg 83%
    20:00 +11°C° 0 mm 0 m/S 681 mmHg 85%
    21:00 +11°C° 0 mm 0 m/S 681 mmHg 87%
    22:00 +11°C° 0 mm 0 m/S 681 mmHg 88%
    23:00 +11°C° 0 mm 0 m/S 681 mmHg 89%

    23 Oktober, Mittwoch

    Zeit Temperatur Niederschläge Wind Luftdruck Luftfeuchtigkeit
    00:00 +10°C° 0 mm 0 m/S 681 mmHg 89%
    01:00 +10°C° 0 mm 0 m/S 681 mmHg 89%
    02:00 +10°C° 0 mm 0 m/S 681 mmHg 88%
    03:00 +10°C° 0 mm 0 m/S 680 mmHg 88%
    04:00 +10°C° 0 mm 0 m/S 680 mmHg 87%
    05:00 +10°C° 0 mm 0 m/S 680 mmHg 85%
    06:00 +10°C° 0 mm 0 m/S 680 mmHg 82%
    07:00 +10°C° 0 mm 0 m/S 680 mmHg 80%
    08:00 +13°C° 0 mm 0 m/S 681 mmHg 70%
    09:00 +16°C° 0 mm 0 m/S 681 mmHg 61%
    10:00 +18°C° 0 mm 0 m/S 682 mmHg 51%
    11:00 +21°C° 0 mm 1 m/S 682 mmHg 47%
    12:00 +22°C° 0 mm 1 m/S 682 mmHg 43%
    13:00 +23°C° 0 mm 1 m/S 682 mmHg 40%
    14:00 +22°C° 0 mm 1 m/S 681 mmHg 46%
    15:00 +19°C° 0 mm 0 m/S 681 mmHg 52%
    16:00 +17°C° 0 mm 0 m/S 680 mmHg 58%
    17:00 +16°C° 0 mm 0 m/S 680 mmHg 62%
    18:00 +15°C° 0 mm 1 m/S 680 mmHg 65%
    19:00 +13°C° 0 mm 1 m/S 679 mmHg 68%
    20:00 +13°C° 0 mm 1 m/S 679 mmHg 68%
    21:00 +13°C° 0 mm 1 m/S 679 mmHg 67%
    22:00 +12°C° 0 mm 1 m/S 680 mmHg 67%
    23:00 +12°C° 0 mm 1 m/S 679 mmHg 65%
    Mehr zeigen